Location: Burera
(21.3780°N, 81.9534°E)
Time: 00:50:06
(UTC+00:00)

SWIFT - Pass Details

Date: 13 August 2020
Orbit: 545 x 560 km, 20.6° (Epoch: 22 September)

Event Time Altitude Azimuth Distance (km) Brightness Sun altitude
Exits shadow 22:30:48 28° 157° (SSE) 1,016 3.6 -22.4°
Drops below altitude 10° 22:34:12 10° 103° (ESE) 1,793 5.6 -21.7°
Sets 22:36:41 0° 92° (E) 2,685 6.9 -21.2°
